Flag for Colombia Weather past 2 weeks in Cali, Colombia

Now
93 °F

Scattered clouds.


Feels Like: 92 °F
Forecast: N/A
Wind: No wind

Location: Cali / Alfonso Bonillaaragon

Current Time: Jul 31, 2014 at 3:45:22 PM

Latest Report: Jul 31, 2014 at 3:00 PM


Visibility: N/A

Pressure: 29.84 "Hg

Humidity: 30%

Dew point: 57 °F

Location of CaliLocation

Historic Weather in Cali — Graph

°F

Cali temperature yesterday

Maximum temperature yesterday: 91 °F (at 2:00 PM)
Minimum temperature yesterday: 70 °F (at 6:00 AM)
Average temperature yesterday: 78 °F

Past Weeks' High & Low Weather Summary

 TemperatureHumidityPressure
High93 °F (Jul 18, 3:00 PM)94% (Jul 17, 5:00 AM)30.07 "Hg (Jul 17, 5:00 AM)
Low64 °F (Jul 19, 5:00 AM)30% (Jul 31, 3:00 PM)28.85 "Hg (Jul 26, 3:00 AM)
Average77 °F69%29.94 "Hg
* Reported Jul 16 3:00 PM — Jul 31 3:00 PM, Cali, Weather by CustomWeather, © 2014

Note: Actual official high and low records may vary slightly from our data, if they occured in-between our weather recording intervals... More about our weather records

Advertising

Cali weather history for previous 24 hours

 ConditionsComfort  
Time TempWeatherWind HumidityBarometerVisibility
3:00 PM
Jul 31
93 °FScattered clouds.No wind30%29.84 "HgN/A
2:00 PM93 °FScattered clouds.3 mph32%29.87 "HgN/A
1:00 PM90 °FPassing clouds.5 mph36%29.91 "HgN/A
12:00 PM86 °FPassing clouds.5 mph49%29.94 "HgN/A
11:00 AM82 °FPassing clouds.5 mph51%29.97 "HgN/A
10:00 AM77 °FScattered clouds.No wind65%30.01 "HgN/A
9:00 AM73 °FPartly sunny.No wind74%30.02 "HgN/A
8:00 AM68 °FPartly sunny.2 mph83%30.02 "HgN/A
7:00 AM64 °FScattered clouds.2 mph94%30.00 "HgN/A
6:00 AM66 °FPassing clouds.3 mph94%29.98 "Hg6 mi
5:00 AM66 °FPassing clouds.3 mph94%29.97 "Hg6 mi
4:00 AM66 °FPassing clouds.3 mph94%29.97 "Hg6 mi
2:00 AM68 °FPassing clouds.5 mph94%29.98 "Hg6 mi
1:00 AM68 °FPassing clouds.No wind94%29.99 "Hg6 mi
12:00 AM70 °FPassing clouds.3 mph88%29.98 "HgN/A
11:00 PM
Jul 30
72 °FPassing clouds.7 mph83%29.99 "HgN/A
10:00 PM73 °FPassing clouds.5 mph78%29.98 "HgN/A
9:00 PM75 °FPassing clouds.9 mph74%29.94 "HgN/A
8:00 PM77 °FPassing clouds.9 mph69%29.92 "HgN/A
7:00 PM81 °FPassing clouds.7 mph62%29.89 "HgN/A
6:00 PM81 °FScattered clouds.12 mph62%29.86 "HgN/A
5:00 PM84 °FScattered clouds.14 mph51%29.86 "HgN/A
4:00 PM88 °FPartly sunny.14 mph43%29.85 "HgN/A
3:00 PM91 °FScattered clouds.7 mph38%29.86 "HgN/A
Weather by CustomWeather, © 2014

See weather overviewHow to use our weather pages